Location: Newark
(34.9500°N, 139.9667°E)
Time: 07:39:17
(UTC+00:00)

Vanguard 1 Rocket - Pass Details

Date: 08 December 2019
Orbit: 651 x 4226 km, 34.3° (Epoch: 28 January)

Event Time Altitude Azimuth Distance (km) Brightness Sun altitude
Rises 07:03:59 0° 182° (S) 8,458 12.8 3.5°
Reaches altitude 10° 07:17:19 10° 157° (SSE) 7,159 12.1 1.2°
Maximum altitude 07:24:05 12° 140° (SE) 6,645 11.7 0.0°
Drops below altitude 10° 07:30:08 10° 123° (ESE) 6,379 11.4 -1.1°
Sets 07:39:22 0° 96° (E) 6,529 11.2 -2.8°
